Location: Unspecified
(42.9300°N, 71.1866°W)
Time: 16:41:47
(UTC-04:00)

Envisat - Visible Passes

Search period start: 30 April 2017 00:00
Search period end: 10 May 2017 00:00
Orbit: 764 x 766 km, 98.2° (Epoch: 29 April)

Date Brightness Start Highest point End Pass type
(mag) Time Alt. Az. Time Alt. Az. Time Alt. Az.
30 Apr 4.9 21:44:32 10° SSW 21:48:46 26° W 21:53:01 10° NW visible
01 May 3.6 21:06:53 10° S 21:11:52 57° W 21:16:53 10° NNW visible
02 May 3.0 20:30:09 10° SSE 20:35:10 66° ENE 20:40:13 10° N visible
02 May 5.5 22:11:46 10° SW 22:14:38 15° W 22:17:33 10° NW visible
03 May 4.5 21:33:04 10° SSW 21:37:36 33° W 21:42:11 10° NNW visible
04 May 3.2 20:55:43 10° S 21:00:46 72° WSW 21:05:53 10° NNW visible
05 May 3.3 20:19:13 10° SSE 20:24:08 53° ENE 20:29:04 10° N visible
05 May 5.3 21:59:53 10° SW 22:03:27 19° W 22:07:03 10° NW visible
06 May 4.1 21:21:42 10° SSW 21:26:29 41° W 21:31:17 10° NNW visible
07 May 3.0 20:44:37 10° SSE 20:49:42 90° NNW 20:54:49 10° NNW visible
07 May 5.8 22:28:27 10° W 22:29:24 10° W 22:30:21 10° WNW visible
08 May 5.0 21:48:13 10° SSW 21:52:16 24° W 21:56:21 10° NW visible
09 May 3.7 21:10:25 10° S 21:15:21 52° W 21:20:20 10° NNW visible
